Miscellaneous Local Product
Issued by NWS North Platte, NE

Home | Current Version | Previous Version | Text Only | Print | Product List | Glossary On
Versions: 1 2 3 4 5 6 7 8 9 10 11 12 13 14 15 16 17 18 19 20 21 22 23 24 25 26 27 28 29 30 31 32 33 34 35 36 37 38 39 40 41 42 43 44 45 46 47 48 49 50
000
AXUS43 KLBF 220910
MISLBF


WESTERN AND NORTH CENTRAL NEBRASKA HOURLY WEATHER ROUNDUP
NATIONAL WEATHER SERVICE NORTH PLATTE NE
400 AM CDT WED OCT 22 2014

***STATIONS NOT REPORTING VARIABLES SUCH AS SKY/WEATHER OR
PRESSURE ARE PROVIDED BY THE NEBRASKA DEPARTMENT OF
ROADS...RAWS...AND APRS NETWORKS...AND ARE NOT UNDER
NATIONAL WEATHER SERVICE QUALITY CONTROL***

...OBSERVATIONS IN AND NEAR THE EASTERN PANHANDLE OF NEBRASKA...

CITY           SKY/WX    TMP DP  RH WIND       PRES   REMARKS
PINE RIDGE     CLOUDY    62  46  55 W15       29.89R
CHADRON        LGT RAIN  61  47  59 W14       29.90S
ALLIANCE       CLOUDY    55  47  74 W8        29.91S
SIDNEY         MOCLDY    54  45  71 NW10      29.95R
WHITECLAY        N/A     59  47  63 W6          N/A
RUSHVILLE        N/A     60  45  57 NW20        N/A
CRESCENT LAKE    N/A     57  43  59 NW6         N/A
LISCO            N/A     54  45  71 W8          N/A
BIG SPRINGS      N/A     56  46  69 CALM        N/A
LEWELLEN         N/A     57  44  62 CALM        N/A
$$

...OBSERVATIONS IN NORTH CENTRAL NEBRASKA...

CITY           SKY/WX    TMP DP  RH WIND       PRES   REMARKS
VALENTINE      MOCLDY    61  53  75 S15       29.83F
THEDFORD       CLOUDY    64  52  65 S14       29.89F
AINSWORTH      PTCLDY    58  53  84 S14       29.87F
O`NEILL        PTCLDY    57  49  74 SE13      29.93S
ORD            CLEAR     53  50  89 SE6       29.94S
BROKEN BOW     PTCLDY    57  53  86 S9        29.93S
BROWNLEE         N/A     62  55  78 S12         N/A
SPRINGVIEW       N/A     59  53  80 CALM        N/A
BREWSTER         N/A     64  58  80 S13         N/A
ROSE             N/A     58  56  96 E10         N/A
NEWPORT          N/A     58  53  85 S10         N/A
SARGENT          N/A     54  52  93 CALM        N/A
COMSTOCK         N/A     60  57  91 S12         N/A
CHAMBERS         N/A     54  47  77 S5G13       N/A
$$

...OBSERVATIONS IN SOUTHWEST NEBRASKA AND FAR NORTHEAST COLORADO...

CITY           SKY/WX    TMP DP  RH WIND       PRES   REMARKS
WRAY           FAIR      58  47  67 SW8       29.91S
HOLYOKE        FAIR      54  45  71 CALM      29.94R
IMPERIAL       CLOUDY    60  46  59 S10       29.91R
OGALLALA       CLOUDY    55  47  74 CALM      29.91S
NORTH PLATTE   MOCLDY    62  50  64 S12       29.90
MCCOOK         PTCLDY    61  50  67 S13       29.93S
LEXINGTON      CLEAR     58  53  82 S8        29.94F
PAXTON           N/A     60  51  72 S12         N/A
SUTHERLAND       N/A     57  49  76 S10         N/A
BRADY            N/A     60  51  73 CALM        N/A
GOTHENBURG       N/A     61  49  65 S3          N/A
CALLAWAY         N/A     56  53  90 S10         N/A
$$

...SOME WEATHER OBSERVATIONS FROM AROUND THE REGION...

CITY           SKY/WX    TMP DP  RH WIND       PRES   REMARKS
DENVER         CLOUDY    53  44  71 N10       29.99R
LARAMIE        MOCLDY    43  35  73 SW5       30.08R
CHEYENNE       CLOUDY    48  40  73 W7        30.03S
SCOTTSBLUFF    LGT RAIN  55  50  83 NW10      29.94R
RAPID CITY     CLOUDY    59  39  47 N20G29    29.86R
PIERRE         PTCLDY    61  53  75 SE13      29.75F
WINNER         FAIR      64  54  69 S22       29.81R
SIOUX FALLS    CLEAR     53  44  71 SE14G23   30.00F
OMAHA          CLEAR     55  44  66 SE13      30.10R
GRAND ISLAND   CLEAR     57  52  83 SE13      29.99S
KANSAS CITY    MOCLDY    54  46  74 SE12      30.13S
WICHITA        PTCLDY    61  57  87 S8        30.05S
HAYS           CLEAR     54  48  82 S9        30.00S
LIBERAL        PTCLDY    55  46  71 SE10      30.04S
GOODLAND       MOCLDY    51  46  83 S9        29.95S
$$



USA.gov is the U.S. government's official web portal to all federal, state and local government web resources and services.